User: anonymous   Login
Location: Unspecified
(0.0000°N, 0.0000°E)
Time: 15:12:23
(UTC+00:00)
Language:

Transit 2A - Orbit

View from above orbital plane
View from above orbital plane
View from above satellite
View from above satellite

Ground track
Ground track

The orbit data is extracted from the following two-line orbital elements,

1    45U 60007A   18051.48056371 -.00000064 +00000-0 +11208-4 0  9998
2    45 066.6940 095.3613 0259751 214.2492 144.1622 14.33588648944324
Epoch (UTC): 20 February 2018 11:32:00
Eccentricity: 0.0259751
inclination: 66.6940°
perigee height: 594 km
apogee height: 965 km
right ascension of ascending node: 95.3613°
argument of perigee: 214.2492°
revolutions per day: 14.33588648
mean anomaly at epoch: 144.1622°
orbit number at epoch: 94432

The dashed part of the orbit path shows where the satellite is in the earth's shadow,  

DLR